Home > Weather > Zagreb > Past weeks

Flag for Croatia Past Weather in Zagreb, Croatia — Yesterday and Last 2 Weeks

Now
70 °F

Passing clouds.


Feels Like: 70 °F
Forecast: 67 / 82 °F
Wind: 6 mph from West

Location: Zagreb / Pleso

Current Time: Jun 25, 2016 at 11:25:00 PM

Latest Report: Jun 25, 2016 at 11:00 PM


Visibility: N/A

Pressure: 29.89 "Hg

Humidity: 78%

Dew Point: 63 °F

Location of ZagrebLocation

Past Weather in Zagreb — Graph

°F

Zagreb Temperature Yesterday

Maximum temperature yesterday: 91 °F (at 3:00 PM)
Minimum temperature yesterday: 68 °F (at 4:30 AM)
Average temperature yesterday: 81 °F

High & Low Weather Summary for the Past Weeks

 TemperatureHumidityPressure
High91 °F (Jun 24, 3:00 PM)100% (Jun 21, 6:00 AM)30.24 "Hg (Jun 21, 6:00 AM)
Low55 °F (Jun 11, 4:30 AM)30% (Jun 18, 1:30 PM)29.53 "Hg (Jun 14, 2:00 PM)
Average70 °F73%29.90 "Hg
* Reported Jun 10 10:00 PM — Jun 25 10:00 PM, Zagreb, Weather by CustomWeather, © 2016

Note: Actual official high and low records may vary slightly from our data, if they occured in-between our weather recording intervals... More about our weather records

Advertising

Zagreb Weather History for the Previous 24 Hours

Scroll right to see more
 ConditionsComfort  
Time TempWeatherWind HumidityBarometerVisibility
10:00 PM
Sat, Jun 25
70 °FPassing clouds.5 mph78%29.89 "HgN/A
9:30 PM70 °FPassing clouds.6 mph73%29.86 "HgN/A
9:00 PM70 °FPassing clouds.3 mph73%29.86 "HgN/A
8:30 PM72 °FSunny.2 mph73%29.86 "Hg10 mi
8:00 PM72 °FPassing clouds.7 mph73%29.86 "HgN/A
7:30 PM73 °FPassing clouds.9 mph65%29.83 "HgN/A
7:00 PM77 °FPassing clouds.8 mph47%29.83 "HgN/A
6:30 PM75 °FThundershowers. Scattered clouds.15 mph54%29.86 "HgN/A
6:00 PM75 °FThundershowers. Scattered clouds.23 mph57%29.86 "HgN/A
5:30 PM84 °FThundershowers. Passing clouds.8 mph70%29.86 "HgN/A
5:00 PM86 °FPassing clouds.6 mph62%29.80 "HgN/A
4:30 PM86 °FPassing clouds.7 mph59%29.83 "HgN/A
4:00 PM86 °FPassing clouds.8 mph59%29.83 "HgN/A
3:30 PM90 °FPassing clouds.8 mph55%29.86 "HgN/A
3:00 PM90 °FPassing clouds.5 mph55%29.86 "HgN/A
2:30 PM90 °FScattered clouds.5 mph55%29.86 "HgN/A
2:00 PM90 °FScattered clouds.6 mph55%29.86 "HgN/A
1:30 PM88 °FPassing clouds.5 mph59%29.86 "HgN/A
1:00 PM88 °FPassing clouds.5 mph62%29.89 "HgN/A
12:30 PM86 °FPassing clouds.5 mph66%29.89 "HgN/A
12:00 PM86 °FPassing clouds.6 mph66%29.89 "HgN/A
11:30 AM86 °FPassing clouds.6 mph62%29.89 "HgN/A
11:00 AM84 °FPassing clouds.6 mph66%29.89 "HgN/A
10:30 AM84 °FSunny.2 mph62%29.92 "Hg10 mi
10:00 AM84 °FSunny.2 mph62%29.92 "Hg10 mi
9:30 AM82 °FSunny.2 mph66%29.89 "Hg10 mi
9:00 AM81 °FPassing clouds.5 mph70%29.92 "HgN/A
8:30 AM79 °FPassing clouds.3 mph74%29.89 "HgN/A
8:00 AM79 °FPassing clouds.5 mph74%29.89 "HgN/A
7:30 AM77 °FPassing clouds.3 mph79%29.89 "HgN/A
7:00 AM73 °FSunny.No wind89%29.89 "Hg10 mi
6:30 AM72 °FFog.1 mph94%29.89 "HgN/A
6:00 AM70 °FFog.No wind94%29.89 "HgN/A
5:30 AM70 °FFog.3 mph94%29.89 "HgN/A
5:00 AM70 °FFog.2 mph94%29.89 "HgN/A
4:30 AM70 °FClear.2 mph94%29.89 "Hg10 mi
4:00 AM72 °FClear.No wind88%29.89 "Hg10 mi
3:30 AM72 °FClear.2 mph88%29.89 "Hg10 mi
3:00 AM72 °FClear.3 mph88%29.89 "Hg10 mi
2:30 AM73 °FClear.No wind89%29.92 "Hg10 mi
2:00 AM73 °FClear.2 mph89%29.92 "Hg10 mi
1:30 AM75 °FPassing clouds.5 mph83%29.92 "HgN/A
1:00 AM75 °FClear.5 mph83%29.95 "Hg10 mi
12:30 AM75 °FClear.2 mph83%29.95 "Hg10 mi
12:00 AM77 °FClear.2 mph79%29.95 "Hg10 mi
11:30 PM
Fri, Jun 24
79 °FClear.5 mph79%29.95 "Hg10 mi
11:00 PM81 °FPassing clouds.5 mph74%29.95 "HgN/A
Weather by CustomWeather, © 2016

See weather overviewHow to use our weather pages